Dean International
Flight School

Career Spotlight

Mika

Mika

Congratulations to Mika from Khazakstan. She recently sent us this photo of her flying an Airbus airliner.

More...
Mika's Success Story
close

Congratulations to Mika from Khazakstan. She recently sent us this photo of her flying an Airbus airliner.

Mario

Mario

My dreams could not have been realized if I wouldn't have been part of the Dean International family.

More...
Mario's Success Story
close

"My dreams could not have been realized if I wouldn't have been part of the Dean International family. Thank you Robert, thanks to all my co-workers, and thanks to all of my students!"

Fernando

Fernando

I am now working as a First Officer at TACA and am enjoying every moment of it.

More...
Fernando's Success Story
close

"Will never forget my time of flight training at Dean International. I am now working as a First Officer at TACA and am enjoying every moment of it."

Alvaro

Alvaro

Because of the flight time I was able to built while instructing, I got the experience needed to apply to an airline in Colombia.

More...
Alvaro's Success Story
close

Dean alumnus Alvaro Londoño currently flies with Tampa Cargo. He says of his experience at Dean: "I want to take this opportunity to thank you for giving me the chance to build my experience and expand my knowledge in Dean International. Because of the flight time I was able to built flight instructing, I got the experience needed to apply to an airline in Colombia."

Ralph

Ralph

Every Aruban student of Dean International has made it into Tiara Air Aruba, that is very nice.

More...
Ralph's Success Story
close

"Next to me is my Co-Pilot, Elison. This picture was taken on our first flight together, which was almost exactly 5 years after I finished at Dean International. [...] Every Aruban student of Dean International has made it into Tiara Air Aruba. [...] The future looks bright here in Aruba."

Rohaan

Rohaan

The [..] staff will all work diligently to help you finish your certificates as safely and efficiently as possible.

More...
Rohaan's Success Story
close

After receiving very hard times from other flight schools [...], I came to Dean International where Robert Dean personally sat down with me and gave me a financial and chronological look into how much remained to finish my private pilot certificate. Through his hard efforts as an instructor and mentor, I was able to finish my private pilot certificate within one week.

Welcome to Dean International

In over two decades, Dean International has educated over 7,000 pilots from all over the world, including over 1,000 students from India alone. By offering a great training experience, a friendly service staff, an ample variety of aircraft, and by improving constantly, we have become one of the largest, most prestigious FAA 141-approved flight schools in North America. Located in Miami, Florida, USA, our flight school offers an ideal location for year-round, "learn to fly" weather, flight training. Dean International is not only well-equipped to provide services to professional trainees but also caters to General Aviation renters. Visit or contact our headquarters at Kendall-Tamiami Executive Airport located in Miami, FL today to learn more about us, or simply read more about our programs if you are an international student interested in joining our school.

Local Airport Information
TAF FOR KTMB (Issued: Tue, September 2nd 2014 3:36 AM UTC)
TAF
      AMD KTMB 020233Z 0203/0224 08005KT P6SM FEW025
      FM021300 10010KT P6SM VCSH SCT030 SCT050
      FM022000 10010KT P6SM SCT030
     
METAR FOR KTMB (Issued: Tue, September 2nd 2014 3:53 AM UTC):
KTMB 020353Z 07005KT 10SM FEW025 28/23 A3008 RMK AO2 SLP187 T02780233

This weather information is provided by the National Weather Service.
It is automatically refreshed every three minutes.
TAF FOR KHST (Issued: Tue, September 2nd 2014 12:06 AM UTC)
TAF KHST 0200/0306 09009KT 9999 FEW035 QNH3000INS
      BECMG 0215/0216 09009KT 8000 -SHRA VCTS SCT030CB QNH3008INS
      TEMPO 0218/0222 10010G20KT 6000 -TSRA BKN025CB
      BECMG 0222/0223 VRB06KT 9999 NSW FEW040 QNH3004INS TX32/0219Z TN26/0209Z
     
METAR FOR KHST (Issued: Tue, September 2nd 2014 3:58 AM UTC):
KHST 020358Z AUTO 06004KT 10SM CLR 28/24 A3008 RMK AO2 SLP189 T02800237

This weather information is provided by the National Weather Service.
It is automatically refreshed every three minutes.
TAF FOR KOPF (Issued: Tue, September 2nd 2014 3:36 AM UTC)
TAF
      AMD KOPF 020232Z 0203/0224 10006KT P6SM FEW030
      FM021200 10010KT P6SM VCSH SCT030
      FM021900 10010KT P6SM SCT030
     
METAR FOR KOPF (Issued: Tue, September 2nd 2014 3:53 AM UTC):
KOPF 020353Z AUTO 10005KT 10SM FEW028 28/23 A3009 RMK AO2 SLP190 T02830228

This weather information is provided by the National Weather Service.
It is automatically refreshed every three minutes.
TAF FOR KMIA (Issued: Tue, September 2nd 2014 3:36 AM UTC)
TAF
      AMD KMIA 020231Z 0203/0224 09006KT P6SM FEW025 SCT100 SCT250
      FM021200 10010KT P6SM VCSH SCT030
      FM021900 10010KT P6SM SCT030
     
METAR FOR KMIA (Issued: Tue, September 2nd 2014 3:53 AM UTC):
KMIA 020353Z 09007KT 10SM FEW025 SCT060 28/23 A3009 RMK AO2 SLP188 T02830228

This weather information is provided by the National Weather Service.
It is automatically refreshed every three minutes.
Design by Ariel Llizo
© Dean International Inc. 2012